风云四号A星 (FENGYUN 4A)

导读

FENGYUN 4A(风云四号A星)是中国于2016年12月10日发射的新一代静止轨道气象卫星,是中国新一代静止轨道气象卫星的首发星。它搭载了多通道扫描成像辐射计、干涉式红外探测仪、闪电成像仪和空间天气监测仪器,大幅提升了中国气象观测的时空分辨率和精准度,可为气象预报、气候监测、灾害预警等提供关键数据支撑,推动了中国气象事业的现代化发展,也为全球气象观测贡献了重要力量。

Basic Information
目录编号:
41882
目录名称:
FENGYUN 4A
国际标识:
2016-077A
轨道中心:
EARTH
卫星名称:
风云四号A星
卫星全名:
风云四号A星 (FENGYUN 4A)
卫星状态:
在轨 (已飞行3517 天)
发射日期:
2016-12-10 UTC
国别 :
中国 (CN)
星等 :
--
Orbit Information
数据来源 国际轨道数据 AOE轨道数据
星历时间 2026-07-28T01:09:23+0800
9小时前
查看轨道信息
2026-07-28T01:00:00+0800
10小时前
查看轨道信息
半长轴 42161.673km 42162.402km
偏心率 0.0007116 0.0007212
轨道倾角 2.421° 2.421°
近地点辐角 163.805° 160.500°
升交点赤经 79.815° 79.810°
平近点角 82.786° 83.739°
近地点 35753.533km 35753.857km
远地点 35813.539km 35814.673km
周期 1435.941分钟 1435.978分钟
每日圈数 1.002827 1.002801
Detailed Information
平衡模式:
三轴稳定
覆盖范围:
亚洲
运营商:
夏威夷科学技术博物馆
运营商所在国:
美国
制造商(研发单位):
上海航天技术研究院
制造商所在国:
中国
使用方式:
暂无
Satellite Introduction
风云气象卫星系列(FENGYUN Meteorological Satellite)是中国于1977年开始研制的气象卫星系列,目前发射了风云一号、风云二号、风云三号、风云四号等卫星系列。其中,风云二号系列、风云四号系列为风云静止卫星,风云一号系列、风云三号系列为风云极轨卫星。该卫星仍在工作。
2D Orbit Map
3D Orbit Map
Orbit Altitude Analysis Chart
Orbit Inclination Analysis Chart
Orbit Comprehensive Analysis Chart
View Comprehensive Chart